Flag for Turkmenistan Weather past 2 weeks in Ashgabat, Turkmenistan

Now
30 °F

Light snow. Overcast.


Feels Like: 24 °F
Forecast: 29 / 57 °F
Wind: 6 mph from East

Location: Ashgabat

Current Time: Jan 28, 2015 at 10:02:50 AM

Latest Report: Jan 28, 2015 at 9:00 AM


Visibility: N/A

Pressure: 30.30 "Hg

Humidity: 75%

Dew point: 23 °F

Location of AshgabatLocation

Historic Weather in Ashgabat — Graph

°F

Ashgabat temperature yesterday

Maximum temperature yesterday: 32 °F (at 2:00 PM)
Minimum temperature yesterday: 27 °F (at 3:00 AM)
Average temperature yesterday: 29 °F

Past Weeks' High & Low Weather Summary

 TemperatureHumidityPressure
High61 °F (Jan 13, 4:00 PM)100% (Jan 15, 8:30 AM)30.60 "Hg (Jan 15, 8:30 AM)
Low23 °F (Jan 26, 5:00 AM)39% (Jan 13, 4:00 PM)29.92 "Hg (Jan 16, 2:00 PM)
Average37 °F83%30.31 "Hg
* Reported Jan 13 9:00 AM — Jan 28 9:00 AM, Ashgabat, Weather by CustomWeather, © 2014

Note: Actual official high and low records may vary slightly from our data, if they occured in-between our weather recording intervals... More about our weather records

Advertising

Ashgabat weather history for previous 24 hours

 ConditionsComfort  
Time TempWeatherWind HumidityBarometerVisibility
9:00 AM
Jan 28
30 °FLight snow. Overcast.6 mph75%30.30 "HgN/A
8:00 AM30 °FOvercast.3 mph75%30.27 "HgN/A
7:00 AM30 °FSnow flurries. Mostly cloudy.3 mph80%30.27 "HgN/A
6:00 AM30 °FSnow flurries. Overcast.3 mph80%30.24 "HgN/A
5:00 AM30 °FSnow flurries. Mostly cloudy.3 mph80%30.24 "HgN/A
4:00 AM30 °FOvercast.6 mph75%30.24 "HgN/A
3:00 AM30 °FMostly cloudy.6 mph80%30.24 "HgN/A
2:00 AM32 °FLight snow. Overcast.6 mph75%30.24 "HgN/A
1:00 AM32 °FOvercast.3 mph75%30.27 "HgN/A
12:00 AM32 °FOvercast.3 mph75%30.27 "HgN/A
11:00 PM
Jan 27
32 °FOvercast.3 mph75%30.27 "HgN/A
10:00 PM32 °FOvercast.6 mph75%30.30 "HgN/A
9:00 PM32 °FOvercast.6 mph75%30.27 "HgN/A
8:00 PM32 °FOvercast.3 mph80%30.27 "Hg6 mi
7:00 PM32 °FOvercast.6 mph80%30.24 "Hg6 mi
6:00 PM32 °FOvercast.6 mph80%30.24 "Hg6 mi
5:00 PM32 °FOvercast.6 mph80%30.21 "Hg5 mi
4:00 PM32 °FOvercast.10 mph80%30.21 "HgN/A
3:00 PM32 °FOvercast.8 mph75%30.21 "Hg6 mi
2:00 PM32 °FOvercast.10 mph75%30.21 "Hg6 mi
1:00 PM30 °FOvercast.10 mph80%30.24 "Hg6 mi
12:00 PM30 °FOvercast.8 mph75%30.27 "HgN/A
11:00 AM28 °FOvercast.10 mph74%30.27 "HgN/A
10:00 AM27 °FOvercast.13 mph80%30.27 "HgN/A
Weather by CustomWeather, © 2014

See weather overviewHow to use our weather pages